When you browse on this site, cookies collect data to enhance your experience and personalize the content and advertising you see.
Visit our Privacy Policy to learn more. By continuing to use the site, you agree to this use of cookies and data.
  • In Austria
  • List of Countries
  • For 7 days
  • Water Temperature
  • Weather Map
  • News
  • Weather Widgets
  • user-avatar
    Login

    Hourly Weather Spring Garden

    Today, 25 January, Saturday

    Time Temperature Precipitation Wind Pressure Humidity
    00:00 +2°C° 0 mm 1 mps 646 mmHg 93%
    01:00 +2°C° 0 mm 1 mps 646 mmHg 91%
    02:00 +2°C° 0 mm 1 mps 646 mmHg 90%
    03:00 +2°C° 0 mm 1 mps 646 mmHg 90%
    04:00 +2°C° 0 mm 0 mps 647 mmHg 91%
    05:00 +2°C° 0 mm 0 mps 647 mmHg 92%
    06:00 +2°C° 0 mm 0 mps 647 mmHg 93%
    07:00 +2°C° 0 mm 0 mps 647 mmHg 94%
    08:00 +3°C° 0 mm 0 mps 647 mmHg 95%
    09:00 +4°C° 0 mm 0 mps 647 mmHg 95%
    10:00 +5°C° 0 mm 0 mps 648 mmHg 95%
    11:00 +6°C° 0 mm 0 mps 648 mmHg 95%
    12:00 +6°C° 0 mm 0 mps 647 mmHg 94%
    13:00 +7°C° 0 mm 0 mps 647 mmHg 94%
    14:00 +7°C° 0 mm 0 mps 647 mmHg 95%
    15:00 +7°C° 0 mm 0 mps 646 mmHg 96%
    16:00 +6°C° 0 mm 0 mps 646 mmHg 97%
    17:00 +7°C° 0 mm 1 mps 646 mmHg 97%
    18:00 +6°C° 0 mm 1 mps 645 mmHg 98%
    19:00 +5°C° 0 mm 1 mps 645 mmHg 98%
    20:00 +6°C° 0.8 mm 1 mps 645 mmHg 99%
    21:00 +6°C° 0.8 mm 1 mps 645 mmHg 99%
    22:00 +5°C° 0.8 mm 2 mps 645 mmHg 99%
    23:00 +5°C° 2.4 mm 2 mps 645 mmHg 99%

    Tomorrow, 26 January, Sunday

    Time Temperature Precipitation Wind Pressure Humidity
    00:00 +5°C° 2.4 mm 2 mps 645 mmHg 99%
    01:00 +5°C° 2.4 mm 2 mps 645 mmHg 99%
    02:00 +4°C° 1.1 mm 2 mps 645 mmHg 99%
    03:00 +3°C° 1.1 mm 3 mps 644 mmHg 99%
    04:00 +3°C° 1.1 mm 3 mps 644 mmHg 99%
    05:00 +3°C° 2.3 mm 3 mps 645 mmHg 99%
    06:00 +3°C° 2.3 mm 2 mps 645 mmHg 99%
    07:00 +3°C° 2.3 mm 2 mps 645 mmHg 99%
    08:00 +3°C° 0.3 mm 2 mps 645 mmHg 99%
    09:00 +5°C° 0.3 mm 1 mps 646 mmHg 99%
    10:00 +5°C° 0.3 mm 1 mps 647 mmHg 98%
    11:00 +5°C° 0.3 mm 2 mps 647 mmHg 98%
    12:00 +5°C° 0.3 mm 2 mps 647 mmHg 97%
    13:00 +5°C° 0.3 mm 2 mps 647 mmHg 96%
    14:00 +5°C° 0.2 mm 2 mps 647 mmHg 96%
    15:00 +5°C° 0.2 mm 1 mps 647 mmHg 95%
    16:00 +5°C° 0.2 mm 1 mps 647 mmHg 95%
    17:00 +4°C° 0 mm 1 mps 647 mmHg 96%
    18:00 +2°C° 0 mm 1 mps 647 mmHg 96%
    19:00 0°C° 0 mm 0 mps 647 mmHg 97%
    20:00 0°C° 0 mm 0 mps 648 mmHg 97%
    21:00 -1°C° 0 mm 0 mps 648 mmHg 96%
    22:00 -1°C° 0 mm 0 mps 649 mmHg 96%
    23:00 -1°C° 0 mm 0 mps 649 mmHg 96%

    Day after tomorrow, 27 January, Monday

    Time Temperature Precipitation Wind Pressure Humidity
    00:00 -1°C° 0 mm 0 mps 649 mmHg 96%
    01:00 -1°C° 0 mm 0 mps 649 mmHg 95%
    02:00 -2°C° 0 mm 0 mps 649 mmHg 94%
    03:00 -2°C° 0 mm 0 mps 649 mmHg 93%
    04:00 -2°C° 0 mm 0 mps 648 mmHg 92%
    05:00 -2°C° 0 mm 0 mps 649 mmHg 90%
    06:00 -2°C° 0 mm 0 mps 649 mmHg 89%
    07:00 -2°C° 0 mm 0 mps 649 mmHg 87%
    08:00 0°C° 0 mm 0 mps 650 mmHg 86%
    09:00 +2°C° 0 mm 0 mps 650 mmHg 85%
    10:00 +4°C° 0 mm 0 mps 651 mmHg 85%
    11:00 +4°C° 0 mm 0 mps 651 mmHg 85%
    12:00 +6°C° 0 mm 1 mps 651 mmHg 85%
    13:00 +7°C° 0 mm 1 mps 650 mmHg 85%
    14:00 +7°C° 0 mm 1 mps 650 mmHg 87%
    15:00 +7°C° 0 mm 1 mps 650 mmHg 89%
    16:00 +7°C° 0 mm 1 mps 650 mmHg 92%
    17:00 +5°C° 0 mm 1 mps 650 mmHg 93%
    18:00 +4°C° 0 mm 1 mps 650 mmHg 95%
    19:00 +2°C° 0 mm 1 mps 650 mmHg 96%
    20:00 +2°C° 0 mm 1 mps 650 mmHg 95%
    21:00 +1°C° 0 mm 1 mps 650 mmHg 93%
    22:00 +1°C° 0 mm 1 mps 650 mmHg 92%
    23:00 +1°C° 0 mm 1 mps 649 mmHg 90%

    28 January, Tuesday

    Time Temperature Precipitation Wind Pressure Humidity
    00:00 0°C° 0 mm 1 mps 649 mmHg 88%
    01:00 -1°C° 0 mm 0 mps 649 mmHg 86%
    02:00 -1°C° 0 mm 0 mps 649 mmHg 84%
    03:00 0°C° 0 mm 0 mps 649 mmHg 81%
    04:00 +1°C° 0 mm 1 mps 649 mmHg 79%
    05:00 +1°C° 0 mm 1 mps 649 mmHg 78%
    06:00 +1°C° 0 mm 1 mps 650 mmHg 77%
    07:00 +2°C° 0 mm 1 mps 650 mmHg 76%
    08:00 +3°C° 0 mm 1 mps 650 mmHg 77%
    09:00 +4°C° 0 mm 1 mps 651 mmHg 77%
    10:00 +5°C° 0 mm 1 mps 651 mmHg 77%
    11:00 +6°C° 0 mm 1 mps 651 mmHg 78%
    12:00 +6°C° 0 mm 2 mps 651 mmHg 78%
    13:00 +7°C° 0 mm 2 mps 651 mmHg 78%
    14:00 +7°C° 0 mm 2 mps 650 mmHg 82%
    15:00 +6°C° 0 mm 2 mps 650 mmHg 86%
    16:00 +6°C° 0 mm 2 mps 649 mmHg 90%
    17:00 +5°C° 0 mm 1 mps 649 mmHg 92%
    18:00 +4°C° 0 mm 1 mps 649 mmHg 94%
    19:00 +2°C° 0 mm 1 mps 649 mmHg 97%
    20:00 +2°C° 0 mm 1 mps 649 mmHg 96%
    21:00 0°C° 0 mm 0 mps 649 mmHg 96%
    22:00 0°C° 0 mm 0 mps 649 mmHg 96%
    23:00 0°C° 0 mm 0 mps 649 mmHg 95%

    29 January, Wednesday

    Time Temperature Precipitation Wind Pressure Humidity
    00:00 +1°C° 0 mm 1 mps 649 mmHg 94%
    01:00 0°C° 0 mm 1 mps 649 mmHg 94%
    02:00 0°C° 0 mm 1 mps 649 mmHg 92%
    03:00 0°C° 0 mm 1 mps 649 mmHg 90%
    04:00 0°C° 0 mm 1 mps 650 mmHg 88%
    05:00 0°C° 0 mm 1 mps 650 mmHg 87%
    06:00 0°C° 0 mm 1 mps 650 mmHg 86%
    07:00 0°C° 0 mm 1 mps 650 mmHg 84%
    08:00 +2°C° 0 mm 1 mps 650 mmHg 80%
    09:00 +4°C° 0 mm 1 mps 650 mmHg 76%
    10:00 +6°C° 0 mm 1 mps 651 mmHg 72%
    11:00 +7°C° 0 mm 1 mps 651 mmHg 70%
    12:00 +8°C° 0 mm 1 mps 650 mmHg 67%
    13:00 +10°C° 0 mm 1 mps 650 mmHg 64%
    14:00 +8°C° 0 mm 0 mps 650 mmHg 70%
    15:00 +7°C° 0 mm 0 mps 649 mmHg 75%
    16:00 +6°C° 0 mm 0 mps 649 mmHg 81%
    17:00 +5°C° 0 mm 0 mps 648 mmHg 79%
    18:00 +5°C° 0 mm 1 mps 648 mmHg 77%
    19:00 +4°C° 0 mm 1 mps 648 mmHg 75%
    20:00 +3°C° 0 mm 1 mps 648 mmHg 75%
    21:00 +3°C° 0 mm 1 mps 648 mmHg 74%
    22:00 +3°C° 0 mm 1 mps 648 mmHg 74%
    23:00 +3°C° 0 mm 1 mps 648 mmHg 73%

    30 January, Thursday

    Time Temperature Precipitation Wind Pressure Humidity
    00:00 +3°C° 0 mm 1 mps 648 mmHg 73%
    01:00 +3°C° 0 mm 1 mps 648 mmHg 73%
    02:00 +3°C° 0 mm 1 mps 648 mmHg 73%
    03:00 +3°C° 0 mm 1 mps 648 mmHg 74%
    04:00 +3°C° 0 mm 1 mps 648 mmHg 74%
    05:00 +3°C° 0 mm 1 mps 648 mmHg 76%
    06:00 +3°C° 0 mm 1 mps 649 mmHg 77%
    07:00 +3°C° 0 mm 1 mps 649 mmHg 79%
    08:00 +4°C° 0 mm 0 mps 650 mmHg 78%
    09:00 +6°C° 0 mm 0 mps 650 mmHg 77%
    10:00 +8°C° 0 mm 0 mps 651 mmHg 76%
    11:00 +9°C° 0 mm 0 mps 651 mmHg 76%
    12:00 +10°C° 0 mm 0 mps 651 mmHg 76%
    13:00 +11°C° 0 mm 0 mps 651 mmHg 77%
    14:00 +10°C° 0 mm 0 mps 651 mmHg 81%
    15:00 +10°C° 0 mm 0 mps 651 mmHg 84%
    16:00 +9°C° 0 mm 0 mps 651 mmHg 88%
    17:00 +8°C° 0 mm 1 mps 651 mmHg 90%
    18:00 +7°C° 0 mm 1 mps 650 mmHg 91%
    19:00 +5°C° 0 mm 1 mps 650 mmHg 92%
    20:00 +5°C° 0 mm 1 mps 650 mmHg 92%
    21:00 +5°C° 0 mm 1 mps 651 mmHg 92%
    22:00 +4°C° 0 mm 1 mps 651 mmHg 91%
    23:00 +4°C° 0 mm 1 mps 651 mmHg 91%
    Show more